Content
SEND FEEDBACK

Daily
Averages
Monthly
Summary
United States of America

HUMBOLDT, IOWA


Home > North America > United States > Iowa
Elevation: 1131 feet     Latitude: 42 42N     Longitude: 094 16W

WEATHER
 
SELECT A DAY
Number of Records: 416,791;   Date Range: 4/29/95 - 10/20/14
 
SHARE

PRINT THIS DATA

[ ← Previous Day ]
WEATHER ALMANAC - JANUARY 23, 2013
[ Next Day → ]
[ °C ]   °F
Weather ElementAverageHighLow
Temperature12 °F21.2 °F (12:15 pm)-2.2 °F (11:35 pm)
Dewpoint3 °F12.2 °F (9:55 am)-11.2 °F (8:35 pm)
Humidity67.4 %79 % (6:15 am)53 % (3:15 pm)
Barometer30.25 in30.52 in (11:55 pm)30.10 in (4:55 am)
Wind Speed15 mph23 mph (5:55 pm)
Wind Gust34.5 mph (3:35 pm)
Weather ElementAverage
Visibility10 mi
Wind DirectionWNW (299.1 °)

Weather ElementTotal
Precipitation---
Heating Degree Days55.5 (Base 65)
Averaged from 69 records on January 23, 2013
WEATHER CONDITIONS BREAKOUT
WIND DIRECTION BREAKOUT
WEATHER BY HOUR - JANUARY 23, 2013
[ °C ]   °F
Local TimeTemperatureDewpointHumidityBarometerVisibilityWind DirectionWind SpeedGust SpeedPrecipitationEventsConditions
12:35 AM15.8 °F8.6 °F73 %30.18 in10.0 miSouth (190°)9.2 mphSnowLight Snow
12:55 AM15.8 °F8.6 °F73 %30.17 in10.0 miSouth (190°)10.4 mphSnowLight Snow
1:15 AM15.8 °F6.8 °F68 %30.16 inSSW (200°)11.5 mphSnowLight Snow
1:35 AM15.8 °F6.8 °F68 %30.16 in10.0 miSSW (200°)10.4 mphOvercast
1:55 AM15.8 °F6.8 °F68 %30.16 in10.0 miSouth (190°)11.5 mphSnowLight Snow
2:15 AM15.8 °F6.8 °F68 %30.17 in10.0 miSSW (200°)10.4 mphOvercast
2:35 AM15.8 °F8.6 °F73 %30.16 in10.0 miSouth (190°)11.5 mphOvercast
2:55 AM15.8 °F8.6 °F73 %30.14 in10.0 miSouth (190°)13.8 mphOvercast
3:15 AM15.8 °F8.6 °F73 %30.14 in10.0 miSSW (200°)9.2 mphSnowLight Snow
3:35 AM15.8 °F8.6 °F73 %30.13 in10.0 miSSW (200°)11.5 mphOvercast
3:55 AM15.8 °F8.6 °F73 %30.13 in10.0 miSSW (200°)11.5 mphOvercast
4:15 AM15.8 °F8.6 °F73 %30.13 in10.0 miSSW (210°)10.4 mphOvercast
4:35 AM15.8 °F8.6 °F73 %30.11 in10.0 miSSW (200°)10.4 mphSnowLight Snow
4:55 AM15.8 °F8.6 °F73 %30.10 in10.0 miSSW (210°)11.5 mphOvercast
5:15 AM15.8 °F8.6 °F73 %30.11 in10.0 miSW (230°)9.2 mphOvercast
5:35 AM15.8 °F8.6 °F73 %30.12 in10.0 miSW (230°)11.5 mphSnowLight Snow
6:15 AM15.8 °F10.4 °F79 %30.12 in10.0 miSW (230°)6.9 mphOvercast
6:35 AM15.8 °F8.6 °F73 %30.11 in10.0 miSW (230°)11.5 mphOvercast
6:55 AM14.0 °F6.8 °F73 %30.11 in10.0 miSW (230°)10.4 mphSnowLight Snow
7:15 AM14.0 °F6.8 °F73 %30.12 in10.0 miWSW (250°)8.1 mphOvercast
7:35 AM14.0 °F6.8 °F73 %30.12 in10.0 miWest (260°)6.9 mphSnowLight Snow
7:55 AM14.0 °F8.6 °F79 %30.12 in10.0 miWest (270°)10.4 mphClear
8:15 AM14.0 °F8.6 °F79 %30.13 in10.0 miWNW (290°)10.4 mphClear
8:35 AM14.0 °F8.6 °F79 %30.14 in10.0 miWNW (300°)11.5 mphPartly Cloudy
8:55 AM15.8 °F8.6 °F73 %30.14 in10.0 miNW (310°)10.4 mphMostly Cloudy
9:15 AM15.8 °F10.4 °F79 %30.14 in10.0 miNW (320°)11.5 mphSnowLight Snow
9:35 AM15.8 °F10.4 °F79 %30.16 in10.0 miNNW (330°)11.5 mphSnowLight Snow
9:55 AM17.6 °F12.2 °F79 %30.16 in10.0 miNNW (340°)13.8 mph19.6 mphRainLight Rain
10:15 AM17.6 °F12.2 °F79 %30.17 in10.0 miNNW (340°)13.8 mph19.6 mphRainLight Rain
10:35 AM19.4 °F12.2 °F74 %30.18 in9.0 miNorth (350°)15.0 mph21.9 mphRainLight Rain
10:55 AM19.4 °F12.2 °F74 %30.19 in9.0 miNorth (350°)15.0 mph21.9 mphRainLight Rain
11:15 AM19.4 °F10.4 °F68 %30.20 in10.0 miNNW (340°)16.1 mph24.2 mphMostly Cloudy
11:35 AM19.4 °F10.4 °F68 %30.19 in10.0 miNorth (350°)16.1 mph23.0 mphMostly Cloudy
11:55 AM19.4 °F12.2 °F74 %30.19 in10.0 miNNW (340°)17.3 mph23.0 mphMostly Cloudy
12:15 PM21.2 °F12.2 °F68 %30.20 in10.0 miNNW (330°)16.1 mph24.2 mphRainLight Rain
12:35 PM19.4 °F10.4 °F68 %30.20 in9.0 miNNW (330°)21.9 mphSnowLight Snow
12:55 PM19.4 °F12.2 °F74 %30.20 in10.0 miNNW (330°)20.7 mph27.6 mphSnowLight Snow
1:15 PM19.4 °F10.4 °F68 %30.20 in10.0 miNNW (330°)19.6 mph27.6 mphRainLight Rain
1:35 PM19.4 °F10.4 °F68 %30.20 in10.0 miNW (320°)20.7 mphSnowLight Snow
1:55 PM19.4 °F8.6 °F63 %30.21 in10.0 miNNW (330°)17.3 mph26.5 mphSnowLight Snow
2:15 PM19.4 °F8.6 °F63 %30.22 in10.0 miNW (320°)21.9 mph28.8 mphSnowLight Snow
2:35 PM19.4 °F6.8 °F58 %30.23 in10.0 miNNW (330°)20.7 mph29.9 mphSnowLight Snow
3:15 PM17.6 °F3.2 °F53 %30.26 in10.0 miNNW (330°)20.7 mph31.1 mphSnowLight Snow
3:35 PM14.0 °F1.4 °F57 %30.26 in10.0 miNNW (330°)21.9 mph34.5 mphSnowLight Snow
3:55 PM14.0 °F1.4 °F57 %30.28 in10.0 miNNW (330°)19.6 mph29.9 mphSnowLight Snow
4:15 PM12.2 °F1.4 °F62 %30.28 in10.0 miNNW (340°)20.7 mph27.6 mphSnowLight Snow
4:35 PM12.2 °F-0.4 °F57 %30.31 in10.0 miNNW (340°)20.7 mph32.2 mphSnowLight Snow
4:55 PM10.4 °F-2.2 °F57 %30.32 in10.0 miNNW (340°)19.6 mph29.9 mphSnowLight Snow
5:15 PM8.6 °F-2.2 °F62 %30.33 in10.0 miNNW (340°)20.7 mph27.6 mphSnowLight Snow
5:35 PM6.8 °F-4.0 °F61 %30.34 in10.0 miNNW (340°)21.9 mph29.9 mphSnowLight Snow
5:55 PM6.8 °F-4.0 °F61 %30.36 in10.0 miNNW (330°)23.0 mph31.1 mphSnowLight Snow
6:15 PM5.0 °F-5.8 °F61 %30.36 in10.0 miNorth (350°)21.9 mph32.2 mphSnowLight Snow
6:35 PM5.0 °F-7.6 °F56 %30.38 in10.0 miNNW (340°)20.7 mph32.2 mphSnowLight Snow
6:55 PM3.2 °F-5.8 °F66 %30.39 in10.0 miNNW (340°)21.9 mph27.6 mphSnowLight Snow
7:15 PM3.2 °F-7.6 °F61 %30.40 in10.0 miNNW (340°)16.1 mph29.9 mphSnowLight Snow
7:35 PM3.2 °F-9.4 °F56 %30.40 in10.0 miNorth (350°)17.3 mph26.5 mphSnowLight Snow
7:55 PM1.4 °F-9.4 °F61 %30.41 in10.0 miNorth (360°)18.4 mph25.3 mphSnowLight Snow
8:15 PM1.4 °F-9.4 °F61 %30.42 in10.0 miNorth (350°)18.4 mph26.5 mphSnowLight Snow
8:35 PM1.4 °F-11.2 °F56 %30.43 in10.0 miNorth (350°)19.6 mph27.6 mphSnowLight Snow
8:55 PM1.4 °F-9.4 °F61 %30.45 in10.0 miNorth (350°)18.4 mph25.3 mphSnowLight Snow
9:15 PM-0.4 °F-11.2 °F60 %30.45 in10.0 miNorth (350°)19.6 mphSnowLight Snow
9:35 PM-0.4 °F-11.2 °F60 %30.46 in10.0 miNorth (360°)13.8 mph24.2 mphClear
9:55 PM-0.4 °F-11.2 °F60 %30.46 in10.0 miNorth (360°)13.8 mph23.0 mphClear
10:15 PM-0.4 °F-11.2 °F60 %30.47 inNorth (360°)13.8 mph
10:35 PM-0.4 °F-11.2 °F60 %30.47 in10.0 miNorth (350°)13.8 mph21.9 mphSnowLight Snow
10:55 PM-0.4 °F-11.2 °F60 %30.48 in10.0 miNorth (350°)12.7 mphClear
11:15 PM-0.4 °F-11.2 °F60 %30.50 in10.0 miNorth (360°)13.8 mph19.6 mphClear
11:35 PM-2.2 °F-11.2 °F66 %30.51 in10.0 miNorth (360°)12.7 mph19.6 mphClear
11:55 PM-2.2 °F-11.2 °F66 %30.52 in10.0 miNorth (360°)11.5 mphClear
Hourly data recorded from KAXA, located miles away from Humboldt, Iowa







STORIES FROM OUR PARTNERS